Find OneWeb SL0043

NORAD ID: 45149 Int'l Des: 2020-008 Owner: ONEWEB Country: UK Constellation: oneweb operational
LEOCIRCULARPOLARONEWEB_TYPE

Live Position

Loading 3D Globe...

About OneWeb SL0043

Description loading...

Upcoming Passes

Passes for default location (London). Set your location on the main map for personalized predictions.

Altitude History

Loading altitude history...

Two-Line Element Set

1 45149U 20008U 26123.22933535 .00000790 00000-0 22276-2 0 9996
2 45149 87.8857 45.2115 0002333 89.1584 270.9811 13.10374043302292
Epoch: May 3, 2026 • Age: 13 hours

Current Status

Altitude 1247.1 km
Velocity 7.23 km/s
Sub-Earth Point -62.00°S, 90.75°W
Launch Date Feb 6, 2020
Age 6.2 years
Type internet

Technical Details

Classification Payload
Mass 148.00 kg
Dry Mass 140.00 kg
Total Mass 148.00 kg
Length 1.30 m
Diameter 1.00 m
Span 5.00 m
Shape Trapezoid+2 pan
Manufacturer ONEWUS
Bus Type ARROW
Phase Status In Orbit
Owner/State ONEWEB/UK

Most Searched